Lid_Strength_Index
3 2 2 2 2 2 2 2 2 1 1 1 1 2 2 2 2 2 2 2 2 2 2 2 2 2 2 2 2 2 3 3 5 3 2 1 1 1 1 0 0 2 3
2 2 2 2 2 2 2 2 1 1 1 2 2 2 1 1 2 2 2 2 2 2 2 2 2 1 2 2 2 2 2 3 3 4 3 2 2 1 1 1 1 1 1
2 3 2 3 3 3 4 3 2 2 3 2 2 2 1 1 1 1 2 2 2 2 2 2 2 2 2 2 2 2 3 2 3 3 3 3 3 2 2 1 1 1 2
3 3 3 3 3 2 3 3 3 2 2 2 1 1 1 1 1 1 1 1 1 2 2 2 3 2 2 2 2 2 2 2 3 4 3 4 3 3 2 3 3 2 3
3 3 3 2 2 2 3 3 2 2 2 2 2 2 1 1 1 1 1 2 2 3 3 3 2 2 2 2 2 2 2 3 3 3 3 3 3 3 3 4 5 4 4
3 3 2 2 2 2 3 3 2 2 2 2 2 2 3 3 9 7 3 2 2 3 4 3 2 2 3 5 4 4 2 3 4 3 3 4 3 4 3 3 3 3 6
3 3 2 2 2 3 2 2 3 3 2 2 2 2 4 5 9 8 6 2 3 3 3 3 2 1 2 2 5 5 5 5 4 3 3 3 3 3 3 3 3 4 5
3 3 2 2 2 2 2 2 2 2 2 2 2 3 5 6 9 7 7 2 3 3 3 3 2 2 3 2 2 3 3 3 3 1 2 2 2 2 2 2 4 4 3
3 3 2 2 3 3 3 2 2 2 3 3 2 4 5 5 9 8 6 2 2 3 2 2 2 2 8 8 2 3 4 4 6 5 6 7 8 7 4 3 4 4 5
3 3 2 2 2 2 2 2 2 2 2 2 2 2 5 5 10 9 6 2 3 3 3 3 9 5 10 8 2 3 3 3 3 4 5 7 6 6 6 3 3 4 5
2 2 2 2 2 2 2 2 2 2 2 2 2 3 3 5 7 10 8 1 2 2 3 4 5 10 10 10 6 2 3 3 4 3 3 3 4 3 3 3 3 4 5
2 2 2 2 2 2 2 2 2 2 3 4 3 2 2 4 8 10 11 6 5 3 3 4 7 11 11 9 6 10 8 5 2 3 3 3 3 3 3 3 3 4 3
2 3 3 2 2 2 2 3 3 2 3 3 3 3 3 4 6 11 11 9 6 4 4 7 12 11 11 9 10 9 6 2 2 3 4 3 3 3 3 3 3 3 3
3 3 3 3 3 2 2 2 3 3 3 3 3 3 3 2 4 6 6 6 9 8 9 8 8 8 8 7 6 4 2 2 2 3 3 3 3 3 3 4 4 4 4
3 3 3 3 3 6 8 8 4 5 5 3 3 2 3 3 3 4 4 4 5 7 6 4 4 4 3 3 3 2 3 2 3 3 3 3 3 4 4 5 5 4 4
3 3 3 3 4 4 5 7 13 13 12 10 8 4 4 8 9 9 9 10 11 11 5 5 5 4 3 3 2 3 2 3 3 3 3 3 3 3 4 4 4 4 4
3 3 3 3 3 3 4 5 5 8 13 13 13 11 9 11 12 11 10 10 12 9 5 5 5 4 4 3 2 2 2 2 2 2 3 3 3 3 6 4 4 4 5
2 6 3 3 3 3 3 3 3 4 5 6 12 12 13 12 12 11 11 9 5 6 4 4 5 4 3 3 3 2 2 2 2 2 2 2 3 3 4 4 4 4 5
3 3 3 2 2 3 2 3 3 3 5 6 7 10 13 13 13 12 11 3 4 5 5 4 4 4 3 3 2 2 2 2 2 2 2 3 3 4 4 4 4 9 7
2 6 4 2 3 3 3 3 3 3 4 5 5 7 7 6 5 5 4 3 4 3 4 4 3 3 3 3 2 2 3 4 3 2 2 3 3 3 4 4 3 3 4
3 4 8 2 3 3 3 3 3 3 3 3 4 6 10 4 4 3 3 3 2 3 2 3 4 4 3 2 2 3 4 3 4 3 2 3 3 3 2 3 3 3 2
3 2 2 2 2 3 3 2 3 3 3 3 4 6 13 3 3 3 3 2 2 2 2 1 2 2 2 2 2 2 2 2 2 1 1 1 1 1 2 2 2 2 2
2 2 2 3 2 7 3 3 3 3 3 3 3 3 6 4 2 2 2 1 1 1 3 4 3 4 5 5 5 4 1 1 1 1 1 1 1 2 2 3 2 2 3
3 3 3 3 3 3 3 3 3 6 3 3 3 3 3 3 3 3 6 7 7 8 8 9 10 10 9 9 9 9 10 10 7 4 1 1 1 3 1 1 2 2 2
2 3 3 3 3 4 3 3 3 3 2 2 2 2 4 5 7 8 8 9 10 11 11 12 11 12 13 13 13 12 14 15 10 13 2 3 4 3 3 3 2 3 3
4 4 4 5 5 5 4 5 5 4 4 5 6 7 7 8 9 9 10 12 13 13 14 13 14 14 14 14 15 16 16 15 11 13 7 7 8 8 7 7 7 7 8